Regional Weather Roundup
Issued by NWS Charleston, SC

Current Version | Previous Version | Graphics & Text | Print | Product List | Glossary On
Versions: 1 2 3 4 5 6 7 8 9 10 11 12 13 14 15 16 17 18 19 20 21 22 23 24 25 26 27 28 29 30 31 32 33 34 35 36 37 38 39 40 41 42 43 44 45 46 47 48 49 50
226 ASUS42 KCHS 311528 RWRCHS REGIONAL WEATHER ROUNDUP NATIONAL WEATHER SERVICE CHARLESTON SC 1100 AM EDT WED AUG 31 2016 NOTE: "FAIR" INDICATES FEW OR NO CLOUDS BELOW 12,000 FEET WITH NO SIGNIFICANT WEATHER AND/OR OBSTRUCTIONS TO VISIBILITY. NOT ALL STATIONS ARE QUALITY CONTROLLED. USE DATA WITH CAUTION... ESPECIALLY DEWPOINT OBSERVATIONS. SCZ027-030-031-034>040-042>050-311600- ...SOUTHEAST SOUTH CAROLINA... CITY SKY/WX TMP DP RH WIND PRES REMARKS N CHARLESTON PTSUNNY 82 73 74 E9 29.98S WATERFRONT PRK N/A 78 74 87 E8 29.95F MOUNT PLEASANT FAIR 79 75 89 CALM 29.98S JOHNS ISLAND FAIR 82 77 83 E16 29.97S HX 91 PINOPOLIS N/A 79 73 83 VRB2 29.92S MONCKS CORNER PTSUNNY 81 72 74 E7 29.99R SUMMERVILLE FAIR 86 73 66 NE5 29.98F HX 93 BEAUFORT MCAS PTSUNNY N/A N/A N/A E12 29.95F BEAUFORT ARPT PTSUNNY 81 73 78 E15 29.95F HILTON HEAD IS MOSUNNY 88 75 66 MISG 29.95F HX 97 WALTERBORO MOSUNNY 88 72 58 E12 29.98S HX 94 ALLENDALE PTSUNNY 84 72 65 VRB5G12 29.96F ...SOUTHERN MIDLANDS AND PEE DEE... CITY SKY/WX TMP DP RH WIND PRES REMARKS GEORGETOWN FAIR 77 73 88 E6 30.01S KINGSTREE PTSUNNY 81 70 69 E6 30.00S ORANGEBURG CLOUDY 82 73 74 E8 29.99F BARNWELL NOT AVBL AIKEN PTSUNNY 82 70 65 E8 30.03S MANNING FAIR 82 72 69 SE7 29.99F COLUMBIA PTSUNNY 86 70 58 E9 29.99S HX 90 SUMTER PTSUNNY 86 71 60 SE6 29.98S HX 91 FLORENCE CLOUDY 85 70 60 VRB3 30.00S MYRTLE BEACH RAIN 73 64 73 S16 30.04R FOG N MYRTLE BEACH LGT RAIN 78 77 96 CALM 30.00S $$ GAZ063-065-086>088-099>101-113>116-118-119-134>141-150-311600- ...SOUTHEAST GEORGIA... CITY SKY/WX TMP DP RH WIND PRES REMARKS SAVANNAH ARPT PTSUNNY 82 75 79 NE13 29.94S HUNTER AAF PTSUNNY 83 79 87 E9 29.91S HX 93 FORT STEWART PTSUNNY 82 75 78 NE12G18 29.90F STATESBORO CLOUDY 82 74 78 E9 29.95F SYLVANIA NOT AVBL CLAXTON CLOUDY 83 74 73 NE14G23 29.95S ...CSRA...CENTRAL AND FAR SOUTHEAST GEORGIA... CITY SKY/WX TMP DP RH WIND PRES REMARKS THOMSON MOSUNNY 87 74 64 CALM 30.04S HX 95 AUGUSTA-BUSH MOSUNNY 84 72 67 E10 29.98S AUGUSTA-DANIEL MOSUNNY 86 N/A N/A E7 30.00S SWAINSBORO CLOUDY 86 72 62 NE10G16 29.97F HX 92 VIDALIA PTSUNNY 86 77 74 NE16 29.95F HX 97 EASTMAN CLOUDY 83 65 54 E13 29.98S HAZLEHURST CLOUDY 83 77 81 NE7 29.93S HX 92 ALMA CLOUDY 80 74 81 NE7 29.92S WAYCROSS N/A 84 79 84 SW6 29.92S HX 96 JESUP HVY RAIN 79 79 100 E6 29.92R BAXLEY CLOUDY 82 79 89 E13 29.92F HX 93 BRUNSWICK CLOUDY 84 77 79 SW13 29.92R HX 94 SAINT SIMONS SUNNY 81 75 82 SW12 29.90S $$ SCZ027-028-034-036>038-045-046-048>050-GAZ119-141-311600- ...LAKE AND SUPPLEMENTAL COASTAL OBSERVATIONS... STATION/POSITION TIME TEMP WIND PRES WAVE SWELL AIR SEA DIR/SP/G HT/PER HT/PER/DIR (UTC) (F) (DEG/KT/KT) (MB) (FT/S) (FT/S/D) WINYAH BAY 1445 76 210/ 3 1015.0S LAKE MURRAY 1400 83 30/ 2/ 5 1015.6R ACE BASIN NERRS 1400 80 60/ 5 1015.0S FORT PULASKI 1500 81 84 60/ 15/ 18 1014.1S SAPELO ISLAND 1500 84 210/ 9 1013.0S $$ ANZ835-935-AMZ111-154-330-350-352-354-370-450-454-472-311600- ...C-MAN AND BUOY OBSERVATIONS... STATION/POSITION TIME TEMP WIND PRES WAVE SWELL AIR SEA DIR/SP/G HT/PER HT/PER/DIR (UTC) (F) (DEG/KT/KT) (MB) (FT/S) (FT/S/D) BUOY 41004 1450 80 84 120/ 12/ 16 1014.6F 4/ 9 3/100/ 9 BUOY 41008 1450 78 85 120/ 8/ 10 1012.9R 4/ 6 3/130/ 6 FOLLY BEACH CMAN 1500 79 70/ 16/ 18 1015.1R CAPERS NEARSHORE 1508 79 83 90/ 12/ 17 1014.9R FRIPP NEARSHORE 1508 81 85 90/ 17/ 21 1013.3S STATION/POSITION TIME TEMP WIND PRES WAVE SWELL AIR SEA DIR/SP/G HT/PER HT/PER/DIR (UTC) (F) (DEG/KT/KT) (MB) (FT/S) (FT/S/D) 5E ST. MARYS GA 1501 85 N/A 4/12 2/110/12 FRYING PAN BUOY 1500 80 84 150/ 2/ 4 1015.5S BUOY 41025 1450 81 85 360/ 12/ 14 1015.1R 4/11 3/120/11 CAPE LOOKOUT NC 1500 82 350/ 5/ 7 1015.3S BUOY 41002 1450 83 84 180/ 4/ 6 1016.4R 4/11 3/ 50/11 BUOY 41010 NOT AVBL ST AUGUSTINE FL 1500 80 82 200/ 10/ 14 1013.7F $$

USA.gov is the U.S. government's official web portal to all federal, state and local government web resources and services.